Погода в Борисоглебовке

Россия / Саратовская область     51°01′05″N   47°45′39″E
темп.,
°C
ветер,
м/с
пор.,
м/с
влажн.,
%
обл.,
%
осадки,
мм/ч
давл.,
гПа
погр.,
м
1 августа, вс
вс101:00+22з3367100 0.0 101233
04:00+22ююв117236 0.0 101211
07:00+24сз11685 0.0 101284
10:00+28с115239 0.0 1013540
13:00+33зсз23315 0.0 10121705
16:00+35сз33230 0.0 10113115
19:00+33с45281 0.0 1011233
22:00+27ссв46420 0.0 101277
2 августа, пн
пн201:00+25всв49520 0.0 1012144
04:00+24в47540 0.0 1012108
07:00+25в37531 0.0 1013161
10:00+33вюв343038 0.0 1013712
13:00+35ююв44221 0.0 10121067
16:00+37ю251790 0.0 10103777
19:00+35зюз342197 0.0 1010140
22:00+28сз2233100 0.0 101111
3 августа, вт
вт301:00+27юз223486 0.0 101114
04:00+25юз223516 0.0 101111
07:00+27ююз353611 0.0 101199
10:00+34юз46245 0.0 1011773
13:00+38зюз581572 0.0 10104303
16:00+39зюз6713100 0.0 10084399
19:00+35ююз3417100 0.0 100754
22:00+29юз44175 0.0 100847
4 августа, ср
ср401:00+26ссз91643100 0.0 1009360
04:00+22ссв496097 0.0 1009180
07:00+23с495789 0.0 1011292
10:00+28с6741100 0.0 1012805
13:00+26ссз7653100 0.0 1011483
16:00+28з673940 0.0 1012781
19:00+29сз56420 0.0 10111535
22:00+24ссз49570 0.3 1012227
5 августа, чт
чт501:00+22с4965100 0.0 1013207
04:00+20ссз3768100 0.0 1014173
07:00+21ссз47634 0.0 1015245
10:00+26с673714 0.0 10152212
13:00+29ссз772684 0.0 10143024
16:00+29ссз872572 0.0 10142746
19:00+27ссз682911 0.0 10141525
22:00+22с48430 0.0 1016137